GW4592 Weather Reports


time (UTC)temp
C
wind
direction
speed
KPH
gust
KPH
rain 1hr
cm
rain 24hr
cm
rain mn
cm
humidity
%
barometer
mb
20260504150236 19 243 3.2 6.4 0.00 0.00 0.00 55 1017.1
20260504141205 20 230 9.7 29.0 0.00 0.00 0.00 56 1017.7
20260504140702 20 233 6.4 22.5 0.00 0.00 0.00 59 1017.5
20260504140157 20 244 3.2 11.3 0.00 0.00 0.00 58 1017.3
20260504130626 20 250 4.8 22.5 0.00 0.00 0.00 59 1017.4
20260504130123 21 201 8.0 20.9 0.00 0.00 0.00 58 1017.4
20260504110515 20 196 19.3 25.7 0.00 0.00 0.00 56 1017.9
20260504100436 21 194 8.0 25.7 0.00 0.00 0.00 53 1018.0
20260504081829 19 187 16.1 22.5 0.00 0.00 0.00 55 1018.0
20260504081326 20 197 12.9 24.1 0.00 0.00 0.00 53 1018.3
20260504080821 20 219 20.9 30.6 0.00 0.00 0.00 56 1018.2
20260504080319 20 206 6.4 19.3 0.00 0.00 0.00 55 1018.1
20260504070246 19 190 30.6 33.8 0.00 0.00 0.00 55 1017.8
20260504060207 17 180 11.3 14.5 0.00 0.00 0.00 64 1017.4
20260504050635 17 222 4.8 14.5 0.00 0.00 0.00 59 1016.9
20260504050132 18 250 3.2 6.4 0.00 0.00 0.00 58 1016.9
20260504045629 18 180 3.2 11.3 0.00 0.00 0.00 58 1017.1
20260504045129 18 175 4.8 8.0 0.00 0.00 0.00 61 1016.9
20260504044627 18 157 4.8 8.0 0.00 0.00 0.00 60 1017.0
20260504044124 18 215 11.3 14.5 0.00 0.00 0.00 62 1016.7
20260504043621 17 186 6.4 8.0 0.00 0.00 0.00 66 1016.7
20260504043118 17 200 4.8 9.7 0.00 0.00 0.00 67 1016.6
20260504042615 16 185 3.2 8.0 0.00 0.00 0.00 68 1016.7
20260504042112 16 194 4.8 12.9 0.00 0.00 0.00 68 1016.6
20260504041607 16 190 4.8 11.3 0.00 0.00 0.00 68 1016.6
20260504041104 16 181 6.4 9.7 0.00 0.00 0.00 68 1016.8
20260504040602 16 192 4.8 14.5 0.00 0.00 0.00 68 1016.7
20260504040058 16 193 4.8 9.7 0.00 0.00 0.00 68 1016.7
20260504035555 15 180 4.8 8.0 0.00 0.00 0.00 69 1016.7
20260504035051 15 191 3.2 8.0 0.00 0.00 0.00 69 1016.8
20260504034549 15 190 3.2 11.3 0.00 0.00 0.00 68 1016.5
20260504034046 15 215 8.0 9.7 0.00 0.00 0.00 69 1016.5
20260504033544 15 178 4.8 9.7 0.00 0.00 0.00 70 1016.4
20260504033041 15 201 8.0 8.0 0.00 0.00 0.00 71 1016.5
20260504032538 14 205 4.8 6.4 0.00 0.00 0.00 72 1016.4
20260504032034 14 214 4.8 6.4 0.00 0.00 0.00 72 1016.5
20260504031532 14 196 3.2 6.4 0.00 0.00 0.00 73 1016.5
20260504031028 14 181 3.2 8.0 0.00 0.00 0.00 73 1016.4
20260504030525 14 225 3.2 4.8 0.00 0.00 0.00 72 1016.2
20260504030021 13 226 3.2 4.8 0.00 0.00 0.00 73 1016.3
20260504025518 13 232 3.2 4.8 0.00 0.00 0.00 73 1016.3
20260504025015 13 214 3.2 4.8 0.00 0.00 0.00 73 1016.2
20260504024512 13 199 4.8 6.4 0.00 0.00 0.00 73 1016.3
20260504024009 13 186 3.2 6.4 0.00 0.00 0.00 73 1016.3
20260504023506 14 200 4.8 8.0 0.00 0.00 0.00 73 1016.4
20260504023001 14 202 4.8 6.4 0.00 0.00 0.00 73 1016.3
20260504022457 14 161 3.2 4.8 0.00 0.00 0.00 73 1016.3
20260504021954 14 214 1.6 3.2 0.00 0.00 0.00 72 1016.3
20260504021452 14 227 4.8 6.4 0.00 0.00 0.00 71 1016.4
20260504020949 14 233 3.2 4.8 0.00 0.00 0.00 71 1016.3
20260504020445 14 228 4.8 8.0 0.00 0.00 0.00 70 1016.3
20260504015942 14 209 4.8 6.4 0.00 0.00 0.00 71 1016.3
20260504015438 14 222 6.4 8.0 0.00 0.00 0.00 71 1016.2
20260504014934 14 245 3.2 6.4 0.00 0.00 0.00 72 1016.3
20260504014430 14 223 6.4 6.4 0.00 0.00 0.00 73 1016.5
20260504013927 14 213 4.8 6.4 0.00 0.00 0.00 72 1016.4
20260504013426 15 247 3.2 6.4 0.00 0.00 0.00 71 1016.3
20260504012926 15 244 3.2 4.8 0.00 0.00 0.00 71 1016.3
20260504012425 15 210 3.2 6.4 0.00 0.00 0.00 71 1016.4
20260504011922 15 226 4.8 6.4 0.00 0.00 0.00 71 1016.5
20260504011419 15 222 4.8 6.4 0.00 0.00 0.00 71 1016.5
20260504010914 14 226 3.2 6.4 0.00 0.00 0.00 72 1016.5
20260504010411 14 207 6.4 8.0 0.00 0.00 0.00 72 1016.4
20260504005907 15 218 3.2 8.0 0.00 0.00 0.00 71 1016.4
20260504005403 15 199 6.4 8.0 0.00 0.00 0.00 71 1016.5
20260504004901 15 223 6.4 6.4 0.00 0.00 0.00 70 1016.4
20260504004359 15 220 4.8 4.8 0.00 0.00 0.00 69 1016.2
20260504003855 15 217 3.2 6.4 0.00 0.00 0.00 68 1016.4
20260504003352 16 215 3.2 8.0 0.00 0.00 0.00 67 1016.2
20260504002848 16 215 4.8 9.7 0.00 0.00 0.00 67 1016.3
20260504002345 16 208 6.4 12.9 0.00 0.00 0.00 67 1016.5
20260504001843 16 227 3.2 9.7 0.00 0.00 0.00 67 1016.3
20260504001340 16 205 8.0 9.7 0.00 0.00 0.00 67 1016.4
20260504000837 15 222 6.4 9.7 0.00 0.00 0.00 67 1016.4
20260504000334 15 204 6.4 8.0 0.00 0.00 0.00 67 1016.5
20260503235831 15 219 4.8 9.7 0.00 0.00 0.00 67 1016.5
20260503235329 15 266 3.2 4.8 0.00 0.00 0.00 67 1016.4
20260503234826 15 237 4.8 6.4 0.00 0.00 0.00 67 1016.5
20260503234324 15 219 4.8 6.4 0.00 0.00 0.00 67 1016.5
20260503233822 16 243 3.2 6.4 0.00 0.00 0.00 66 1016.5
20260503233317 15 237 4.8 9.7 0.00 0.00 0.00 66 1016.5
20260503232814 15 245 3.2 6.4 0.00 0.00 0.00 66 1016.6
20260503232311 16 246 3.2 4.8 0.00 0.00 0.00 66 1016.6
20260503231809 16 220 6.4 8.0 0.00 0.00 0.00 65 1016.8
20260503231306 16 209 6.4 6.4 0.00 0.00 0.00 65 1016.8
20260503230802 16 218 4.8 8.0 0.00 0.00 0.00 64 1016.9
20260503230259 16 284 1.6 14.5 0.00 0.00 0.00 64 1016.8
20260503225757 16 257 3.2 4.8 0.00 0.00 0.00 64 1016.8
20260503225252 16 241 4.8 6.4 0.00 0.00 0.00 64 1016.8
20260503224749 16 219 4.8 4.8 0.00 0.00 0.00 64 1016.6
20260503224246 15 249 1.6 6.4 0.00 0.00 0.00 65 1016.7
20260503223744 15 249 1.6 3.2 0.00 0.00 0.00 65 1016.7
20260503223241 16 275 4.8 9.7 0.00 0.00 0.00 65 1016.8
20260503222737 16 248 1.6 8.0 0.00 0.00 0.00 65 1016.9
20260503222236 16 264 3.2 8.0 0.00 0.00 0.00 65 1017.0
20260503221734 16 239 3.2 4.8 0.00 0.00 0.00 64 1017.1
20260503221231 16 285 1.6 6.4 0.00 0.00 0.00 63 1016.9
20260503220727 16 239 3.2 9.7 0.00 0.00 0.00 63 1017.1
20260503220224 16 276 3.2 6.4 0.00 0.00 0.00 63 1017.2
20260503215721 16 229 6.4 9.7 0.00 0.00 0.00 64 1017.1
20260503215218 16 256 0.0 9.7 0.00 0.00 0.00 66 1017.0
20260503214716 16 228 6.4 8.0 0.00 0.00 0.00 67 1017.1
20260503214212 16 255 3.2 6.4 0.00 0.00 0.00 67 1016.9
20260503213711 16 283 4.8 11.3 0.00 0.00 0.00 67 1017.0
20260503213208 16 253 3.2 12.9 0.00 0.00 0.00 67 1017.1
20260503212704 16 234 6.4 9.7 0.00 0.00 0.00 67 1017.0
20260503212202 16 223 3.2 6.4 0.00 0.00 0.00 67 1017.0
20260503211700 17 283 3.2 11.3 0.00 0.00 0.00 68 1017.2
20260503211155 17 302 4.8 8.0 0.00 0.00 0.00 68 1017.3
20260503210651 17 225 3.2 12.9 0.00 0.00 0.00 68 1017.1
20260503210148 17 242 4.8 9.7 0.00 0.00 0.00 69 1017.2
20260503205644 17 245 4.8 8.0 0.00 0.00 0.00 70 1017.2
20260503205140 17 245 4.8 4.8 0.00 0.00 0.00 71 1017.2
20260503204637 17 218 6.4 8.0 0.00 0.00 0.00 71 1017.1
20260503204135 17 280 3.2 6.4 0.00 0.00 0.00 71 1017.2
20260503203631 17 276 3.2 11.3 0.00 0.00 0.00 72 1017.2
20260503203129 17 266 6.4 14.5 0.00 0.00 0.00 71 1017.0
20260503202626 17 265 4.8 9.7 0.00 0.00 0.00 70 1017.0
20260503202124 17 277 1.6 6.4 0.00 0.00 0.00 69 1017.1
20260503201622 17 268 3.2 16.1 0.00 0.00 0.00 68 1017.3
20260503201119 17 327 0.0 14.5 0.00 0.00 0.00 68 1017.0
20260503200615 17 204 3.2 9.7 0.00 0.00 0.00 67 1017.0
20260503200112 17 253 3.2 6.4 0.00 0.00 0.00 66 1017.2
20260503195609 17 289 1.6 4.8 0.00 0.00 0.00 66 1017.1
20260503195106 17 248 3.2 4.8 0.00 0.00 0.00 66 1017.3
20260503194603 17 275 3.2 4.8 0.00 0.00 0.00 66 1017.3
20260503194058 17 225 6.4 6.4 0.00 0.00 0.00 66 1017.2
20260503193555 17 249 3.2 4.8 0.00 0.00 0.00 66 1017.2
20260503193050 17 251 3.2 6.4 0.00 0.00 0.00 66 1017.1
20260503192546 17 236 4.8 6.4 0.00 0.00 0.00 67 1017.0
20260503192042 17 244 3.2 6.4 0.00 0.00 0.00 68 1016.7
20260503191539 17 253 4.8 6.4 0.00 0.00 0.00 69 1016.6
20260503191036 17 245 1.6 9.7 0.00 0.00 0.00 70 1016.7
20260503190533 17 235 4.8 6.4 0.00 0.00 0.00 70 1016.9
20260503190030 17 255 1.6 6.4 0.00 0.00 0.00 69 1017.0
20260503185527 17 242 4.8 8.0 0.00 0.00 0.00 68 1016.8
20260503185026 17 251 3.2 4.8 0.00 0.00 0.00 67 1016.8
20260503184523 17 301 3.2 4.8 0.00 0.00 0.00 67 1016.8
20260503184019 17 275 3.2 3.2 0.00 0.00 0.00 67 1016.8
20260503183516 18 228 3.2 4.8 0.00 0.00 0.00 66 1016.8
20260503183013 18 286 3.2 8.0 0.00 0.00 0.00 67 1016.7
20260503182512 18 298 0.0 16.1 0.00 0.00 0.00 67 1016.8
20260503182009 18 285 3.2 8.0 0.00 0.00 0.00 68 1016.7
20260503181501 18 269 0.0 4.8 0.00 0.00 0.00 68 1016.5
20260503180956 18 249 3.2 6.4 0.00 0.00 0.00 68 1016.2
20260503180455 17 260 3.2 8.0 0.00 0.00 0.00 68 1016.2
20260503175951 17 283 0.0 3.2 0.00 0.00 0.00 69 1016.1
20260503175449 17 265 3.2 6.4 0.00 0.00 0.00 69 1016.2
20260503174945 18 272 3.2 4.8 0.00 0.00 0.00 69 1016.1
20260503174443 18 257 4.8 8.0 0.00 0.00 0.00 69 1016.1
20260503173943 18 266 1.6 6.4 0.00 0.00 0.00 70 1016.0
20260503173439 18 260 3.2 8.0 0.00 0.00 0.00 70 1015.7
20260503172936 18 260 8.0 8.0 0.00 0.00 0.00 71 1015.9
20260503172434 18 269 0.0 6.4 0.00 0.00 0.00 71 1015.5
20260503171930 17 269 0.0 9.7 0.00 0.00 0.00 72 1015.4
20260503171427 17 278 3.2 8.0 0.00 0.00 0.00 73 1015.4
20260503170925 17 333 0.0 6.4 0.00 0.00 0.00 75 1015.3
20260503170420 17 262 1.6 6.4 0.00 0.00 0.00 78 1015.2
20260503150813 18 343 6.4 9.7 0.00 0.00 0.00 78 1014.0